Location: Hylvaty SDH
(49.9612°N, 16.4057°E)
Time: 00:43:42
(UTC+01:00)

Courier 1B - All Passes

Search period start: 26 January 2020 00:00
Search period end: 05 February 2020 00:00
Orbit: 962 x 1209 km, 28.3° (Epoch: 25 January)

Date Brightness Start Highest point End Pass type
(mag) Time Alt. Az. Time Alt. Az. Time Alt. Az.
26 Jan - 03:36:32 10° SSW 03:39:16 12° S 03:42:03 10° SSE visible
26 Jan - 05:29:19 10° SSW 05:31:54 12° S 05:34:32 10° SSE visible
27 Jan - 02:44:03 10° S 02:45:49 11° SSE 02:47:36 10° SSE visible
27 Jan - 04:35:33 10° SSW 04:38:25 12° S 04:41:20 10° SSE visible
28 Jan - 03:42:06 10° SSW 03:44:56 12° S 03:47:49 10° SSE visible
29 Jan - 02:48:59 10° SSW 02:51:28 12° S 02:54:00 10° SSE visible
29 Jan - 04:42:57 10° SSW 04:44:04 10° SSW 04:45:13 10° S visible
30 Jan - 01:56:18 10° S 01:58:03 11° S 01:59:48 10° SSE night (unlit)
30 Jan - 03:48:39 10° SSW 03:50:36 11° S 03:52:35 10° S visible
31 Jan - 02:55:01 10° SSW 02:57:10 11° S 02:59:21 10° SSE visible
01 Feb - 02:01:44 10° SSW 02:03:44 11° S 02:05:45 10° SSE night (unlit)
02 Feb - 01:08:53 10° S 01:10:20 11° S 01:11:47 10° SSE night (unlit)
03 Feb - 02:08:47 10° SSW 02:09:26 10° S 02:10:05 10° S night (unlit)
04 Feb - 01:14:59 10° SSW 01:16:02 10° S 01:17:06 10° S night (unlit)
